RYR7WQ EGHH-LEPA

Flight info

Callsign RYR7WQ
Flight time 2h 2m
Altitude 35000
Route SAM Y8 GWC UN859 SOPIL DCT BALAN DCT EVPOK DCT NARAK DCT GAI DCT LOMRA DCT ROCAN DCT IBRAP N13 LORES
Aircraft B738/M-SDE2E3FGHIRWXY/LB1

Departure

Time 2026-05-06 19:03
Airport Bournemouth Airport (EGHH)

Arrival

Time 2026-05-06 21:05
Airport Palma de Mallorca Airport (LEPA)
Time Latitude Longitude Altitude Speed Heading
2026-05-06 18:41 50.77884 -1.83387 45 ft 0 kts 86°
2026-05-06 18:49 50.77884 -1.83388 45 ft 1 kts 86°
2026-05-06 18:49 50.77884 -1.83424 40 ft 4 kts 101°
2026-05-06 18:50 50.77893 -1.83462 42 ft 4 kts 128°
2026-05-06 18:50 50.77913 -1.83486 44 ft 4 kts 167°
2026-05-06 18:50 50.77919 -1.83488 43 ft 1 kts 172°
2026-05-06 18:53 50.77918 -1.83488 45 ft 1 kts 172°
2026-05-06 18:53 50.77894 -1.83482 45 ft 6 kts 171°
2026-05-06 18:53 50.77830 -1.83469 43 ft 12 kts 176°
2026-05-06 18:54 50.77732 -1.83463 45 ft 15 kts 187°
2026-05-06 18:54 50.77638 -1.83480 45 ft 11 kts 187°
2026-05-06 18:54 50.77579 -1.83545 45 ft 10 kts 247°
2026-05-06 18:54 50.77588 -1.83655 43 ft 10 kts 299°
2026-05-06 18:55 50.77630 -1.83745 45 ft 10 kts 307°
2026-05-06 18:55 50.77675 -1.83838 45 ft 11 kts 307°
2026-05-06 18:55 50.77715 -1.83942 45 ft 11 kts 300°
2026-05-06 18:55 50.77756 -1.84055 45 ft 12 kts 300°
2026-05-06 18:56 50.77800 -1.84173 45 ft 12 kts 300°
2026-05-06 18:56 50.77829 -1.84249 45 ft 5 kts 300°
2026-05-06 18:56 50.77839 -1.84276 45 ft 0 kts 300°
2026-05-06 18:58 50.77842 -1.84286 45 ft 3 kts 300°
2026-05-06 18:58 50.77863 -1.84342 43 ft 9 kts 300°
2026-05-06 18:59 50.77906 -1.84456 42 ft 15 kts 300°
2026-05-06 18:59 50.77945 -1.84615 45 ft 16 kts 264°
2026-05-06 18:59 50.77919 -1.84787 47 ft 17 kts 255°
2026-05-06 18:59 50.77887 -1.84977 47 ft 19 kts 255°
2026-05-06 19:00 50.77853 -1.85185 47 ft 21 kts 256°
2026-05-06 19:00 50.77815 -1.85416 47 ft 23 kts 255°
2026-05-06 19:00 50.77773 -1.85656 45 ft 18 kts 244°
2026-05-06 19:00 50.77718 -1.85723 45 ft 12 kts 230°
2026-05-06 19:01 50.77761 -1.85733 45 ft 9 kts 76°
2026-05-06 19:01 50.77763 -1.85726 45 ft 0 kts 75°
2026-05-06 19:02 50.77763 -1.85724 45 ft 0 kts 75°
2026-05-06 19:02 50.77765 -1.85713 45 ft 3 kts 76°
2026-05-06 19:02 50.77799 -1.85504 46 ft 51 kts 75°
2026-05-06 19:02 50.77952 -1.84580 45 ft 121 kts 75°
2026-05-06 19:03 50.78213 -1.83013 200 ft 163 kts 75°
2026-05-06 19:03 50.78488 -1.81242 919 ft 165 kts 75°
2026-05-06 19:03 50.78918 -1.79566 1719 ft 169 kts 56°
2026-05-06 19:03 50.79593 -1.77842 2007 ft 200 kts 57°
2026-05-06 19:04 50.80350 -1.75847 2223 ft 224 kts 58°
2026-05-06 19:04 50.81184 -1.73625 2484 ft 245 kts 58°
2026-05-06 19:04 50.82068 -1.71252 3152 ft 254 kts 58°
2026-05-06 19:04 50.82966 -1.68829 4034 ft 256 kts 58°
2026-05-06 19:05 50.83870 -1.66379 4832 ft 261 kts 58°
2026-05-06 19:05 50.84794 -1.63867 5574 ft 267 kts 58°
2026-05-06 19:05 50.85741 -1.61290 6302 ft 274 kts 58°
2026-05-06 19:05 50.86703 -1.58665 7049 ft 277 kts 58°
2026-05-06 19:06 50.87672 -1.56014 7860 ft 279 kts 58°
2026-05-06 19:06 50.88647 -1.53347 8639 ft 281 kts 58°
2026-05-06 19:06 50.89630 -1.50652 9422 ft 284 kts 58°
2026-05-06 19:06 50.90457 -1.47795 10148 ft 290 kts 76°
2026-05-06 19:07 50.90552 -1.44514 10439 ft 312 kts 96°
2026-05-06 19:07 50.90331 -1.42211 10583 ft 326 kts 99°
2026-05-06 19:07 50.89744 -1.37340 11163 ft 343 kts 100°
2026-05-06 19:07 50.89279 -1.33634 11910 ft 344 kts 100°
2026-05-06 19:08 50.88806 -1.29890 12622 ft 349 kts 101°
2026-05-06 19:08 50.88326 -1.26100 13321 ft 354 kts 101°
2026-05-06 19:08 50.87841 -1.22257 14047 ft 357 kts 101°
2026-05-06 19:08 50.87356 -1.18381 14712 ft 362 kts 101°
2026-05-06 19:09 50.87032 -1.15781 15175 ft 364 kts 101°
2026-05-06 19:09 50.86378 -1.10483 16104 ft 369 kts 101°
2026-05-06 19:09 50.85889 -1.06475 16812 ft 373 kts 101°
2026-05-06 19:09 50.85399 -1.02427 17497 ft 377 kts 101°
2026-05-06 19:10 50.84906 -0.98327 18179 ft 381 kts 101°
2026-05-06 19:10 50.84578 -0.95590 18581 ft 383 kts 101°
2026-05-06 19:10 50.83921 -0.90066 19351 ft 388 kts 101°
2026-05-06 19:10 50.83421 -0.85849 19938 ft 392 kts 101°
2026-05-06 19:11 50.82917 -0.81590 20515 ft 395 kts 101°
2026-05-06 19:11 50.82411 -0.77303 21081 ft 399 kts 101°
2026-05-06 19:11 50.81793 -0.73003 21618 ft 403 kts 111°
2026-05-06 19:11 50.80455 -0.69287 22132 ft 404 kts 132°
2026-05-06 19:12 50.79077 -0.67230 22526 ft 403 kts 145°
2026-05-06 19:12 50.76845 -0.64989 23093 ft 404 kts 150°
2026-05-06 19:12 50.74428 -0.62684 23592 ft 408 kts 150°
2026-05-06 19:12 50.71987 -0.60338 24003 ft 412 kts 150°
2026-05-06 19:13 50.69571 -0.57992 24451 ft 415 kts 149°
2026-05-06 19:13 50.67080 -0.55556 24913 ft 417 kts 149°
2026-05-06 19:13 50.64645 -0.53164 25352 ft 419 kts 149°
2026-05-06 19:13 50.62160 -0.50718 25771 ft 422 kts 149°
2026-05-06 19:14 50.59663 -0.48260 26189 ft 425 kts 149°
2026-05-06 19:14 50.57149 -0.45787 26603 ft 427 kts 149°
2026-05-06 19:14 50.54621 -0.43304 27007 ft 430 kts 149°
2026-05-06 19:14 50.52076 -0.40808 27415 ft 432 kts 149°
2026-05-06 19:15 50.49521 -0.38305 27806 ft 435 kts 149°
2026-05-06 19:15 50.46947 -0.35787 28193 ft 437 kts 149°
2026-05-06 19:15 50.44359 -0.33259 28559 ft 439 kts 149°
2026-05-06 19:15 50.41758 -0.30722 28910 ft 442 kts 149°
2026-05-06 19:16 50.39137 -0.28168 29270 ft 444 kts 149°
2026-05-06 19:16 50.36502 -0.25605 29617 ft 447 kts 149°
2026-05-06 19:16 50.33857 -0.23034 30024 ft 447 kts 149°
2026-05-06 19:16 50.31218 -0.20473 30445 ft 446 kts 149°
2026-05-06 19:17 50.28592 -0.17928 30894 ft 444 kts 149°
2026-05-06 19:17 50.25969 -0.15388 31287 ft 443 kts 149°
2026-05-06 19:17 50.23345 -0.12852 31635 ft 443 kts 149°
2026-05-06 19:17 50.20725 -0.10322 31996 ft 443 kts 149°
2026-05-06 19:18 50.18108 -0.07799 32378 ft 442 kts 149°
2026-05-06 19:18 50.15492 -0.05278 32732 ft 442 kts 149°
2026-05-06 19:18 50.12876 -0.02764 33068 ft 442 kts 149°
2026-05-06 19:18 50.10195 -0.00432 33394 ft 441 kts 156°
2026-05-06 19:19 50.07329 0.01231 33709 ft 440 kts 166°
2026-05-06 19:19 50.04368 0.02398 34054 ft 438 kts 167°
2026-05-06 19:19 50.01403 0.03505 34333 ft 438 kts 167°
2026-05-06 19:19 49.98436 0.04610 34579 ft 439 kts 167°
2026-05-06 19:20 49.95470 0.05732 34833 ft 439 kts 167°
2026-05-06 19:20 49.92504 0.06872 35005 ft 441 kts 167°
2026-05-06 19:20 49.89514 0.08033 34987 ft 445 kts 167°
2026-05-06 19:21 49.83517 0.10377 34985 ft 442 kts 167°
2026-05-06 19:21 49.77635 0.12673 34983 ft 437 kts 167°
2026-05-06 19:22 49.71734 0.14967 34994 ft 437 kts 167°
2026-05-06 19:22 49.65837 0.17272 34994 ft 437 kts 166°
2026-05-06 19:23 49.59947 0.19664 34999 ft 438 kts 166°
2026-05-06 19:23 49.54045 0.22067 34997 ft 439 kts 166°
2026-05-06 19:24 49.48130 0.24459 34997 ft 440 kts 166°
2026-05-06 19:24 49.42204 0.26845 34996 ft 441 kts 166°
2026-05-06 19:25 49.36264 0.29230 34994 ft 442 kts 166°
2026-05-06 19:25 49.30315 0.31616 34991 ft 442 kts 165°
2026-05-06 19:26 49.24371 0.34097 34996 ft 443 kts 165°
2026-05-06 19:26 49.18429 0.36615 34990 ft 443 kts 165°
2026-05-06 19:27 49.12477 0.39120 34989 ft 443 kts 165°
2026-05-06 19:27 49.06526 0.41610 34989 ft 443 kts 165°
2026-05-06 19:28 49.00577 0.44091 34987 ft 443 kts 165°
2026-05-06 19:28 48.94634 0.46563 34988 ft 443 kts 165°
2026-05-06 19:29 48.88696 0.49028 34987 ft 442 kts 165°
2026-05-06 19:29 48.82766 0.51484 34987 ft 442 kts 165°
2026-05-06 19:30 48.76836 0.53914 34987 ft 441 kts 166°
2026-05-06 19:30 48.70897 0.56232 34988 ft 441 kts 166°
2026-05-06 19:31 48.64959 0.58533 34984 ft 440 kts 166°
2026-05-06 19:31 48.56062 0.61998 34985 ft 440 kts 166°
2026-05-06 19:32 48.50132 0.64316 34980 ft 440 kts 166°
2026-05-06 19:32 48.44217 0.66724 34981 ft 440 kts 165°
2026-05-06 19:33 48.38341 0.69125 34977 ft 441 kts 165°
2026-05-06 19:33 48.32422 0.71524 34975 ft 441 kts 165°
2026-05-06 19:34 48.26494 0.73917 34974 ft 441 kts 166°
2026-05-06 19:34 48.20560 0.76281 34971 ft 442 kts 166°
2026-05-06 19:35 48.14607 0.78618 34973 ft 442 kts 166°
2026-05-06 19:35 48.08655 0.80951 34970 ft 443 kts 166°
2026-05-06 19:36 48.02692 0.83288 34968 ft 443 kts 166°
2026-05-06 19:36 47.96730 0.85621 34966 ft 443 kts 166°
2026-05-06 19:37 47.90762 0.87950 34967 ft 443 kts 166°
2026-05-06 19:37 47.85800 0.89883 34962 ft 444 kts 166°
2026-05-06 19:38 47.78814 0.92592 34964 ft 444 kts 166°
2026-05-06 19:38 47.72836 0.94902 34964 ft 444 kts 166°
2026-05-06 19:39 47.66860 0.97207 34965 ft 444 kts 166°
2026-05-06 19:39 47.60924 0.99492 34966 ft 444 kts 166°
2026-05-06 19:40 47.54950 1.01787 34963 ft 443 kts 166°
2026-05-06 19:40 47.48977 1.04076 34965 ft 443 kts 166°
2026-05-06 19:41 47.42989 1.06195 34958 ft 442 kts 173°
2026-05-06 19:41 47.36874 1.06426 34970 ft 440 kts 182°
2026-05-06 19:42 47.30753 1.06180 34969 ft 440 kts 182°
2026-05-06 19:42 47.24635 1.05991 34966 ft 440 kts 182°
2026-05-06 19:43 47.18516 1.05849 34968 ft 440 kts 182°
2026-05-06 19:43 47.12391 1.05716 34971 ft 440 kts 182°
2026-05-06 19:44 47.06266 1.05581 34969 ft 440 kts 182°
2026-05-06 19:44 47.00136 1.05425 34967 ft 441 kts 182°
2026-05-06 19:45 46.94009 1.05155 34971 ft 440 kts 183°
2026-05-06 19:45 46.87922 1.04870 34973 ft 441 kts 183°
2026-05-06 19:46 46.81792 1.04597 34969 ft 441 kts 183°
2026-05-06 19:46 46.75661 1.04332 34973 ft 441 kts 183°
2026-05-06 19:47 46.69528 1.04069 34973 ft 441 kts 183°
2026-05-06 19:47 46.63394 1.03805 34974 ft 441 kts 183°
2026-05-06 19:48 46.57260 1.03542 34973 ft 441 kts 183°
2026-05-06 19:48 46.51128 1.03509 34962 ft 442 kts 175°
2026-05-06 19:49 46.45104 1.05301 34968 ft 443 kts 167°
2026-05-06 19:49 46.39115 1.07405 34971 ft 443 kts 167°
2026-05-06 19:50 46.33122 1.09465 34967 ft 443 kts 168°
2026-05-06 19:50 46.27122 1.11477 34963 ft 443 kts 168°
2026-05-06 19:51 46.21122 1.13470 34964 ft 443 kts 168°
2026-05-06 19:51 46.15119 1.15457 34957 ft 443 kts 168°
2026-05-06 19:52 46.09368 1.17239 34948 ft 442 kts 171°
2026-05-06 19:52 46.03305 1.18734 34947 ft 442 kts 172°
2026-05-06 19:53 45.97235 1.20185 34937 ft 442 kts 172°
2026-05-06 19:53 45.91175 1.21677 34940 ft 442 kts 171°
2026-05-06 19:54 45.85120 1.23195 34939 ft 442 kts 171°
2026-05-06 19:54 45.79063 1.24720 34938 ft 441 kts 171°
2026-05-06 19:55 45.73017 1.26239 34942 ft 441 kts 171°
2026-05-06 19:55 45.66978 1.27752 34946 ft 440 kts 172°
2026-05-06 19:56 45.60948 1.29259 34943 ft 440 kts 172°
2026-05-06 19:56 45.54922 1.30761 34940 ft 439 kts 172°
2026-05-06 19:57 45.48906 1.32258 34943 ft 438 kts 172°
2026-05-06 19:57 45.42904 1.33748 34940 ft 438 kts 172°
2026-05-06 19:58 45.37921 1.34983 34940 ft 437 kts 172°
2026-05-06 19:58 45.31933 1.36463 34952 ft 437 kts 172°
2026-05-06 19:59 45.25948 1.37940 34953 ft 436 kts 172°
2026-05-06 19:59 45.18998 1.39651 34955 ft 436 kts 172°
2026-05-06 20:00 45.13989 1.40882 34962 ft 436 kts 172°
2026-05-06 20:00 45.08013 1.42347 34972 ft 436 kts 172°
2026-05-06 20:01 45.02031 1.43810 34972 ft 436 kts 172°
2026-05-06 20:01 44.96039 1.45273 34968 ft 437 kts 172°
2026-05-06 20:02 44.90052 1.46731 34964 ft 437 kts 172°
2026-05-06 20:02 44.84102 1.48178 34959 ft 437 kts 173°
2026-05-06 20:03 44.78110 1.49632 34961 ft 437 kts 173°
2026-05-06 20:03 44.72121 1.51081 34961 ft 437 kts 173°
2026-05-06 20:04 44.66131 1.52528 34962 ft 437 kts 173°
2026-05-06 20:04 44.63138 1.53250 34954 ft 437 kts 173°
2026-05-06 20:06 44.60371 1.53917 34959 ft 437 kts 173°
2026-05-06 20:07 44.54381 1.55358 34962 ft 437 kts 173°
2026-05-06 20:07 44.48391 1.56796 34970 ft 437 kts 173°
2026-05-06 20:08 44.42397 1.58232 34969 ft 437 kts 173°
2026-05-06 20:08 44.36405 1.59665 34973 ft 437 kts 173°
2026-05-06 20:09 44.30413 1.61095 34974 ft 437 kts 173°
2026-05-06 20:09 44.24462 1.62511 34971 ft 436 kts 173°
2026-05-06 20:10 44.18478 1.63933 34975 ft 436 kts 174°
2026-05-06 20:10 44.12501 1.65351 34976 ft 436 kts 174°
2026-05-06 20:11 44.06531 1.66764 34975 ft 435 kts 174°
2026-05-06 20:11 44.00570 1.68171 34984 ft 434 kts 174°
2026-05-06 20:12 43.94615 1.69575 34978 ft 434 kts 174°
2026-05-06 20:12 43.88669 1.70973 34978 ft 433 kts 174°
2026-05-06 20:13 43.82733 1.72367 34987 ft 433 kts 174°
2026-05-06 20:13 43.76795 1.73757 34993 ft 432 kts 174°
2026-05-06 20:14 43.70872 1.75142 34995 ft 432 kts 174°
2026-05-06 20:14 43.64947 1.76524 35002 ft 432 kts 175°
2026-05-06 20:15 43.59028 1.77902 35005 ft 432 kts 175°
2026-05-06 20:15 43.53101 1.79279 35004 ft 432 kts 175°
2026-05-06 20:16 43.47214 1.80645 34998 ft 432 kts 175°
2026-05-06 20:16 43.41251 1.82025 35002 ft 432 kts 175°
2026-05-06 20:17 43.35334 1.83392 35005 ft 431 kts 175°
2026-05-06 20:17 43.29458 1.84747 35006 ft 431 kts 176°
2026-05-06 20:18 43.23550 1.86106 35004 ft 430 kts 176°
2026-05-06 20:18 43.17656 1.87460 35009 ft 429 kts 176°
2026-05-06 20:19 43.11771 1.88809 35008 ft 428 kts 176°
2026-05-06 20:19 43.05892 1.90153 35008 ft 428 kts 176°
2026-05-06 20:20 43.00029 1.91492 35006 ft 427 kts 176°
2026-05-06 20:20 42.94181 1.92825 35008 ft 426 kts 176°
2026-05-06 20:21 42.88346 1.94152 35015 ft 425 kts 176°
2026-05-06 20:21 42.82516 1.95475 35012 ft 425 kts 176°
2026-05-06 20:22 42.76690 1.96794 35017 ft 424 kts 176°
2026-05-06 20:22 42.70876 1.98110 34998 ft 423 kts 176°
2026-05-06 20:23 42.65076 1.99419 35013 ft 422 kts 176°
2026-05-06 20:23 42.59285 2.00723 34997 ft 421 kts 177°
2026-05-06 20:24 42.53505 2.02022 34996 ft 421 kts 177°
2026-05-06 20:24 42.47731 2.03319 34995 ft 421 kts 177°
2026-05-06 20:25 42.41956 2.04612 34993 ft 420 kts 177°
2026-05-06 20:25 42.36221 2.05905 34996 ft 422 kts 175°
2026-05-06 20:26 42.30489 2.07800 34980 ft 425 kts 171°
2026-05-06 20:26 42.24793 2.09894 34991 ft 424 kts 172°
2026-05-06 20:27 42.19100 2.11956 34989 ft 423 kts 172°
2026-05-06 20:27 42.13409 2.13978 34991 ft 423 kts 172°
2026-05-06 20:28 42.07721 2.15985 34986 ft 422 kts 172°
2026-05-06 20:28 42.02031 2.17986 34988 ft 423 kts 172°
2026-05-06 20:29 41.96341 2.19987 34984 ft 422 kts 172°
2026-05-06 20:29 41.90661 2.21980 34983 ft 422 kts 172°
2026-05-06 20:30 41.82144 2.24963 34985 ft 421 kts 173°
2026-05-06 20:31 41.76467 2.26945 34982 ft 422 kts 173°
2026-05-06 20:31 41.70779 2.28930 34982 ft 422 kts 173°
2026-05-06 20:32 41.65094 2.30912 34981 ft 422 kts 173°
2026-05-06 20:32 41.59417 2.32890 34984 ft 421 kts 173°
2026-05-06 20:33 41.53758 2.34857 34981 ft 419 kts 173°
2026-05-06 20:33 41.48123 2.36813 34986 ft 418 kts 173°
2026-05-06 20:34 41.42504 2.38758 34981 ft 417 kts 173°
2026-05-06 20:34 41.36917 2.40692 34966 ft 410 kts 174°
2026-05-06 20:35 41.31436 2.42587 34974 ft 406 kts 174°
2026-05-06 20:35 41.25958 2.44468 34609 ft 405 kts 174°
2026-05-06 20:35 41.23248 2.45403 34269 ft 400 kts 174°
2026-05-06 20:36 41.20565 2.46328 33906 ft 397 kts 175°
2026-05-06 20:36 41.17903 2.47244 33489 ft 394 kts 175°
2026-05-06 20:36 41.15265 2.48149 33091 ft 390 kts 175°
2026-05-06 20:36 41.12688 2.49034 32723 ft 386 kts 175°
2026-05-06 20:37 41.10098 2.49921 32357 ft 382 kts 175°
2026-05-06 20:37 41.07536 2.50798 31996 ft 379 kts 175°
2026-05-06 20:37 41.04996 2.51667 31638 ft 376 kts 175°
2026-05-06 20:37 41.02471 2.52529 31280 ft 373 kts 175°
2026-05-06 20:38 40.99971 2.53382 30933 ft 370 kts 175°
2026-05-06 20:38 40.97488 2.54228 30585 ft 367 kts 175°
2026-05-06 20:38 40.95027 2.55067 30246 ft 364 kts 175°
2026-05-06 20:38 40.92577 2.55901 29881 ft 362 kts 175°
2026-05-06 20:39 40.90150 2.56726 29485 ft 359 kts 175°
2026-05-06 20:39 40.87747 2.57545 29126 ft 355 kts 175°
2026-05-06 20:39 40.85372 2.58353 28777 ft 351 kts 175°
2026-05-06 20:39 40.83016 2.59153 28400 ft 348 kts 174°
2026-05-06 20:40 40.80682 2.59945 28063 ft 345 kts 174°
2026-05-06 20:40 40.78368 2.60729 27695 ft 342 kts 174°
2026-05-06 20:40 40.76073 2.61506 27350 ft 339 kts 174°
2026-05-06 20:40 40.73795 2.62277 26999 ft 337 kts 174°
2026-05-06 20:41 40.71531 2.63043 26659 ft 335 kts 174°
2026-05-06 20:41 40.69282 2.63803 26321 ft 333 kts 174°
2026-05-06 20:41 40.67042 2.64558 25999 ft 332 kts 174°
2026-05-06 20:41 40.64803 2.65313 25656 ft 333 kts 174°
2026-05-06 20:42 40.62537 2.66074 25332 ft 341 kts 173°
2026-05-06 20:42 40.60211 2.66853 24986 ft 349 kts 173°
2026-05-06 20:42 40.57854 2.67649 24617 ft 349 kts 173°
2026-05-06 20:42 40.55509 2.68444 24254 ft 347 kts 172°
2026-05-06 20:43 40.53175 2.69232 23903 ft 346 kts 172°
2026-05-06 20:43 40.50850 2.70015 23539 ft 345 kts 172°
2026-05-06 20:43 40.48591 2.71133 23115 ft 351 kts 159°
2026-05-06 20:43 40.46442 2.72664 22746 ft 350 kts 156°
2026-05-06 20:44 40.44335 2.74249 22377 ft 348 kts 156°
2026-05-06 20:44 40.42243 2.75826 22031 ft 346 kts 156°
2026-05-06 20:44 40.40157 2.77378 21684 ft 343 kts 156°
2026-05-06 20:44 40.38082 2.78903 21340 ft 340 kts 156°
2026-05-06 20:45 40.36047 2.80385 21012 ft 338 kts 156°
2026-05-06 20:45 40.33994 2.81871 20679 ft 336 kts 156°
2026-05-06 20:45 40.31951 2.83346 20342 ft 334 kts 156°
2026-05-06 20:45 40.29922 2.84808 20011 ft 332 kts 156°
2026-05-06 20:46 40.27901 2.86264 19679 ft 331 kts 156°
2026-05-06 20:46 40.25888 2.87712 19351 ft 329 kts 156°
2026-05-06 20:46 40.23883 2.89153 19018 ft 328 kts 156°
2026-05-06 20:46 40.22533 2.90124 18798 ft 327 kts 156°
2026-05-06 20:47 40.20539 2.91558 18455 ft 327 kts 156°
2026-05-06 20:47 40.18573 2.92976 18115 ft 326 kts 156°
2026-05-06 20:47 40.16563 2.94426 17741 ft 325 kts 156°
2026-05-06 20:47 40.14615 2.95831 17397 ft 323 kts 156°
2026-05-06 20:48 40.12651 2.97246 17058 ft 321 kts 155°
2026-05-06 20:48 40.10700 2.98651 16736 ft 319 kts 155°
2026-05-06 20:48 40.08759 3.00047 16413 ft 317 kts 155°
2026-05-06 20:48 40.06828 3.01430 16090 ft 315 kts 157°
2026-05-06 20:49 40.04780 3.02250 15750 ft 304 kts 180°
2026-05-06 20:49 40.02722 3.02012 15443 ft 294 kts 199°
2026-05-06 20:49 40.00787 3.01200 15150 ft 291 kts 202°
2026-05-06 20:49 39.98882 3.00329 14828 ft 290 kts 202°
2026-05-06 20:50 39.96981 2.99455 14511 ft 289 kts 202°
2026-05-06 20:50 39.95085 2.98592 14200 ft 288 kts 202°
2026-05-06 20:50 39.93603 2.97924 13943 ft 288 kts 202°
2026-05-06 20:50 39.91712 2.97077 13626 ft 287 kts 202°
2026-05-06 20:51 39.89822 2.96236 13282 ft 286 kts 201°
2026-05-06 20:51 39.87941 2.95402 12955 ft 285 kts 201°
2026-05-06 20:51 39.86066 2.94572 12634 ft 284 kts 201°
2026-05-06 20:51 39.84216 2.93706 12307 ft 281 kts 209°
2026-05-06 20:52 39.82692 2.92175 11926 ft 278 kts 231°
2026-05-06 20:52 39.81576 2.90129 11599 ft 277 kts 237°
2026-05-06 20:52 39.80510 2.88041 11271 ft 277 kts 237°
2026-05-06 20:52 39.79444 2.85976 11095 ft 271 kts 237°
2026-05-06 20:53 39.78398 2.83970 10946 ft 264 kts 236°
2026-05-06 20:53 39.77379 2.82026 10801 ft 258 kts 236°
2026-05-06 20:53 39.76368 2.80102 10528 ft 257 kts 236°
2026-05-06 20:53 39.75361 2.78188 10286 ft 256 kts 236°
2026-05-06 20:54 39.74356 2.76281 10018 ft 256 kts 236°
2026-05-06 20:54 39.73352 2.74379 9746 ft 255 kts 236°
2026-05-06 20:54 39.72351 2.72484 9470 ft 254 kts 236°
2026-05-06 20:54 39.71354 2.70596 9199 ft 253 kts 236°
2026-05-06 20:55 39.70363 2.68716 8942 ft 251 kts 236°
2026-05-06 20:55 39.69378 2.66851 8690 ft 250 kts 236°
2026-05-06 20:55 39.68399 2.64994 8430 ft 248 kts 236°
2026-05-06 20:55 39.67438 2.63173 8184 ft 247 kts 236°
2026-05-06 20:56 39.66456 2.61313 7929 ft 246 kts 236°
2026-05-06 20:56 39.65503 2.59510 7683 ft 245 kts 236°
2026-05-06 20:56 39.64542 2.57691 7431 ft 244 kts 236°
2026-05-06 20:56 39.63582 2.55876 7175 ft 243 kts 236°
2026-05-06 20:57 39.62626 2.54069 6926 ft 243 kts 236°
2026-05-06 20:57 39.61671 2.52264 6668 ft 242 kts 236°
2026-05-06 20:57 39.60716 2.50462 6411 ft 242 kts 236°
2026-05-06 20:57 39.59763 2.48663 6145 ft 242 kts 235°
2026-05-06 20:58 39.58811 2.46868 5884 ft 241 kts 235°
2026-05-06 20:58 39.57860 2.45077 5624 ft 241 kts 235°
2026-05-06 20:58 39.56911 2.43290 5373 ft 241 kts 234°
2026-05-06 20:58 39.55720 2.41810 5095 ft 238 kts 206°
2026-05-06 20:59 39.54145 2.41324 4874 ft 234 kts 176°
2026-05-06 20:59 39.52558 2.41828 4647 ft 239 kts 152°
2026-05-06 20:59 39.51147 2.42990 4403 ft 242 kts 143°
2026-05-06 20:59 39.49794 2.44304 4162 ft 244 kts 142°
2026-05-06 21:00 39.48440 2.45619 3892 ft 243 kts 143°
2026-05-06 21:00 39.47083 2.46913 3642 ft 241 kts 143°
2026-05-06 21:00 39.45857 2.48364 3370 ft 239 kts 121°
2026-05-06 21:00 39.45430 2.50389 3165 ft 235 kts 86°
2026-05-06 21:01 39.45941 2.52373 2960 ft 233 kts 64°
2026-05-06 21:01 39.46740 2.54190 2714 ft 232 kts 59°
2026-05-06 21:01 39.47584 2.55928 2494 ft 222 kts 59°
2026-05-06 21:01 39.48372 2.57582 2257 ft 210 kts 60°
2026-05-06 21:02 39.49106 2.59143 2018 ft 195 kts 60°
2026-05-06 21:02 39.49777 2.60572 1852 ft 177 kts 60°
2026-05-06 21:02 39.50396 2.61890 1681 ft 167 kts 60°
2026-05-06 21:02 39.50982 2.63136 1483 ft 156 kts 60°
2026-05-06 21:03 39.51536 2.64316 1279 ft 153 kts 60°
2026-05-06 21:03 39.52082 2.65477 1064 ft 149 kts 59°
2026-05-06 21:03 39.52601 2.66609 861 ft 147 kts 60°
2026-05-06 21:03 39.53119 2.67741 686 ft 145 kts 58°
2026-05-06 21:04 39.53659 2.68859 470 ft 144 kts 58°
2026-05-06 21:04 39.54178 2.69954 266 ft 142 kts 58°
2026-05-06 21:04 39.54680 2.71004 65 ft 134 kts 57°
2026-05-06 21:04 39.55134 2.71955 27 ft 103 kts 58°
2026-05-06 21:05 39.55403 2.72523 24 ft 64 kts 57°
2026-05-06 21:05 39.55501 2.72929 25 ft 36 kts 92°
2026-05-06 21:05 39.55495 2.73111 25 ft 18 kts 90°
2026-05-06 21:05 39.55540 2.73261 27 ft 19 kts 60°
2026-05-06 21:06 39.55613 2.73417 27 ft 21 kts 58°
2026-05-06 21:06 39.55604 2.73516 27 ft 12 kts 147°
2026-05-06 21:06 39.55525 2.73575 29 ft 14 kts 152°
2026-05-06 21:06 39.55437 2.73641 31 ft 16 kts 149°
2026-05-06 21:07 39.55326 2.73731 33 ft 22 kts 148°
2026-05-06 21:07 39.55197 2.73833 35 ft 20 kts 149°
2026-05-06 21:07 39.55077 2.73926 35 ft 13 kts 149°
2026-05-06 21:07 39.55015 2.73976 35 ft 11 kts 148°
2026-05-06 21:08 39.54941 2.73979 35 ft 13 kts 230°
2026-05-06 21:08 39.54859 2.73984 33 ft 12 kts 173°
2026-05-06 21:08 39.54843 2.73918 35 ft 11 kts 272°
2026-05-06 21:08 39.54841 2.73857 35 ft 5 kts 266°
2026-05-06 21:09 39.54841 2.73838 35 ft 0 kts 267°